PRDMO SBJD-SDEN

Flight info

Callsign PRDMO
Flight time N/A
Altitude 8000
Route SOVSI UZ85 RAXIT DCT EDNEL UZ38 DARDI DCT 263912S0484105W
Aircraft C208/L-SDFGR/C

Departure

Time 2026-04-24 23:12
Airport Comte. Rolim Adolfo Amaro–Jundiaí State Airport (SBJD)

Arrival

Time N/A
Airport Costa Esmeralda Airport (SDEN)
Time Latitude Longitude Altitude Speed Heading
2026-04-24 22:45 -23.18183 -46.94192 2473 ft 0 kts 96°
2026-04-24 23:03 -23.18187 -46.94187 2473 ft 1 kts 159°
2026-04-24 23:04 -23.18193 -46.94189 2473 ft 0 kts 214°
2026-04-24 23:04 -23.18194 -46.94189 2473 ft 0 kts 214°
2026-04-24 23:04 -23.18194 -46.94190 2473 ft 1 kts 214°
2026-04-24 23:04 -23.18265 -46.94207 2475 ft 17 kts 156°
2026-04-24 23:05 -23.18365 -46.94133 2480 ft 15 kts 142°
2026-04-24 23:05 -23.18376 -46.94162 2480 ft 14 kts 343°
2026-04-24 23:05 -23.18371 -46.94164 2480 ft 14 kts 343°
2026-04-24 23:06 -23.18369 -46.94165 2479 ft 14 kts 343°
2026-04-24 23:07 -23.18318 -46.94184 2477 ft 1 kts 338°
2026-04-24 23:07 -23.18304 -46.94191 2477 ft 3 kts 337°
2026-04-24 23:07 -23.18274 -46.94205 2476 ft 13 kts 337°
2026-04-24 23:07 -23.18173 -46.94252 2471 ft 17 kts 336°
2026-04-24 23:08 -23.18055 -46.94306 2467 ft 20 kts 335°
2026-04-24 23:08 -23.17945 -46.94358 2462 ft 14 kts 338°
2026-04-24 23:08 -23.17866 -46.94394 2460 ft 11 kts 337°
2026-04-24 23:08 -23.17800 -46.94424 2456 ft 11 kts 336°
2026-04-24 23:09 -23.17705 -46.94468 2453 ft 19 kts 336°
2026-04-24 23:09 -23.17572 -46.94530 2448 ft 21 kts 336°
2026-04-24 23:09 -23.17488 -46.94595 2445 ft 0 kts 278°
2026-04-24 23:10 -23.17498 -46.94638 2453 ft 20 kts 252°
2026-04-24 23:11 -23.17625 -46.94601 2448 ft 13 kts 152°
2026-04-24 23:11 -23.17640 -46.94594 2448 ft 0 kts 158°
2026-04-24 23:11 -23.17664 -46.94585 2449 ft 24 kts 160°
2026-04-24 23:12 -23.18072 -46.94399 2479 ft 93 kts 157°
2026-04-24 23:12 -23.18730 -46.94063 2711 ft 111 kts 156°
2026-04-24 23:12 -23.19509 -46.93674 2892 ft 131 kts 158°
2026-04-24 23:12 -23.20360 -46.93279 3264 ft 133 kts 160°
2026-04-24 23:13 -23.21210 -46.92907 3572 ft 135 kts 158°
2026-04-24 23:13 -23.22076 -46.92497 3709 ft 136 kts 160°
2026-04-24 23:13 -23.22984 -46.92156 3758 ft 144 kts 165°
2026-04-24 23:13 -23.23993 -46.91807 3636 ft 158 kts 164°
2026-04-24 23:14 -23.25047 -46.91440 3598 ft 159 kts 163°
2026-04-24 23:14 -23.26072 -46.91080 3747 ft 150 kts 164°
2026-04-24 23:14 -23.27038 -46.90733 3940 ft 142 kts 163°
2026-04-24 23:14 -23.27957 -46.90391 4138 ft 137 kts 163°
2026-04-24 23:15 -23.28842 -46.90050 4337 ft 134 kts 162°
2026-04-24 23:15 -23.29703 -46.89705 4531 ft 131 kts 162°
2026-04-24 23:15 -23.30546 -46.89352 4733 ft 129 kts 161°
2026-04-24 23:15 -23.31370 -46.88994 4932 ft 128 kts 160°
2026-04-24 23:16 -23.32197 -46.88620 5132 ft 129 kts 159°
2026-04-24 23:16 -23.33022 -46.88235 5333 ft 129 kts 159°
2026-04-24 23:16 -23.33835 -46.87839 5529 ft 127 kts 157°
2026-04-24 23:16 -23.34635 -46.87434 5730 ft 127 kts 157°
2026-04-24 23:17 -23.35431 -46.87016 5873 ft 132 kts 156°
2026-04-24 23:17 -23.36293 -46.86555 5880 ft 143 kts 156°
2026-04-24 23:17 -23.37212 -46.86056 5882 ft 151 kts 155°
2026-04-24 23:17 -23.37962 -46.85263 5868 ft 157 kts 113°
2026-04-24 23:18 -23.37928 -46.84101 5869 ft 159 kts 64°
2026-04-24 23:18 -23.37113 -46.83341 5873 ft 157 kts 16°
2026-04-24 23:18 -23.36024 -46.83262 5874 ft 157 kts 358°
2026-04-24 23:18 -23.34927 -46.83280 5873 ft 158 kts 358°
2026-04-24 23:19 -23.33836 -46.83391 5877 ft 157 kts 348°
2026-04-24 23:19 -23.32766 -46.83635 5872 ft 157 kts 347°
2026-04-24 23:19 -23.31696 -46.83883 5872 ft 157 kts 347°
2026-04-24 23:19 -23.30641 -46.84130 5874 ft 156 kts 347°
2026-04-24 23:20 -23.29581 -46.84377 5875 ft 156 kts 347°
2026-04-24 23:20 -23.28512 -46.84626 5874 ft 157 kts 347°
2026-04-24 23:20 -23.27446 -46.84874 5882 ft 157 kts 347°
2026-04-24 23:20 -23.26376 -46.85124 5876 ft 158 kts 347°
2026-04-24 23:21 -23.25303 -46.85374 5888 ft 158 kts 347°
2026-04-24 23:21 -23.24235 -46.85622 5978 ft 154 kts 347°
2026-04-24 23:21 -23.23217 -46.85860 6128 ft 149 kts 347°
2026-04-24 23:21 -23.22215 -46.86096 6273 ft 146 kts 347°
2026-04-24 23:22 -23.21233 -46.86325 6423 ft 143 kts 347°
2026-04-24 23:22 -23.20260 -46.86553 6575 ft 142 kts 347°
2026-04-24 23:22 -23.19351 -46.86923 6713 ft 140 kts 317°
2026-04-24 23:22 -23.18915 -46.87847 6858 ft 138 kts 288°
2026-04-24 23:23 -23.18620 -46.88838 7004 ft 138 kts 288°
2026-04-24 23:23 -23.18327 -46.89827 7152 ft 137 kts 288°
2026-04-24 23:23 -23.18033 -46.90816 7306 ft 137 kts 288°
2026-04-24 23:23 -23.17741 -46.91800 7457 ft 137 kts 288°
2026-04-24 23:24 -23.17450 -46.92784 7608 ft 137 kts 288°
2026-04-24 23:24 -23.17194 -46.93761 7743 ft 137 kts 273°
2026-04-24 23:24 -23.17571 -46.94676 7891 ft 138 kts 227°
2026-04-24 23:24 -23.18270 -46.95401 7993 ft 142 kts 225°
2026-04-24 23:25 -23.19011 -46.96159 7997 ft 150 kts 225°
2026-04-24 23:25 -23.19781 -46.96948 8000 ft 154 kts 225°
2026-04-24 23:25 -23.20569 -46.97759 8001 ft 157 kts 225°
2026-04-24 23:25 -23.21370 -46.98585 8001 ft 159 kts 225°
2026-04-24 23:26 -23.22176 -46.99415 8001 ft 160 kts 225°
2026-04-24 23:26 -23.22986 -47.00247 8004 ft 161 kts 225°
2026-04-24 23:26 -23.23792 -47.01077 8003 ft 161 kts 225°
2026-04-24 23:26 -23.24609 -47.01919 8004 ft 162 kts 225°
2026-04-24 23:27 -23.25427 -47.02763 8004 ft 162 kts 225°
2026-04-24 23:27 -23.26246 -47.03609 8001 ft 162 kts 225°
2026-04-24 23:27 -23.27064 -47.04452 8003 ft 162 kts 225°
2026-04-24 23:27 -23.27866 -47.05309 8006 ft 161 kts 228°
2026-04-24 23:28 -23.28598 -47.06231 8008 ft 161 kts 234°
2026-04-24 23:28 -23.29263 -47.07207 8009 ft 161 kts 235°
2026-04-24 23:28 -23.29926 -47.08188 8010 ft 161 kts 235°
2026-04-24 23:28 -23.30593 -47.09151 8007 ft 162 kts 230°
2026-04-24 23:29 -23.31390 -47.10018 8005 ft 162 kts 225°
2026-04-24 23:29 -23.32205 -47.10861 8003 ft 162 kts 225°
2026-04-24 23:29 -23.33028 -47.11699 8002 ft 161 kts 224°
2026-04-24 23:29 -23.33856 -47.12525 8004 ft 161 kts 225°
2026-04-24 23:30 -23.34388 -47.13089 8003 ft 161 kts 226°
2026-04-24 23:30 -23.35178 -47.13955 8005 ft 161 kts 227°
2026-04-24 23:30 -23.35965 -47.14825 8005 ft 161 kts 227°
2026-04-24 23:30 -23.36754 -47.15697 8005 ft 161 kts 227°
2026-04-24 23:31 -23.37543 -47.16567 8006 ft 161 kts 227°
2026-04-24 23:31 -23.38333 -47.17439 8007 ft 162 kts 227°
2026-04-24 23:31 -23.39377 -47.18592 8005 ft 161 kts 227°
2026-04-24 23:31 -23.39909 -47.19181 8006 ft 162 kts 227°
2026-04-24 23:32 -23.40705 -47.20059 8008 ft 163 kts 227°
2026-04-24 23:32 -23.41497 -47.20933 8007 ft 165 kts 227°
2026-04-24 23:32 -23.42302 -47.21824 8008 ft 165 kts 227°
2026-04-24 23:32 -23.43109 -47.22716 8008 ft 165 kts 227°
2026-04-24 23:33 -23.43919 -47.23611 8008 ft 166 kts 227°
2026-04-24 23:33 -23.44727 -47.24504 8008 ft 166 kts 227°
2026-04-24 23:33 -23.45536 -47.25399 8008 ft 166 kts 227°
2026-04-24 23:33 -23.46343 -47.26293 8008 ft 166 kts 227°
2026-04-24 23:34 -23.47154 -47.27190 8008 ft 166 kts 227°
2026-04-24 23:34 -23.47963 -47.28086 8008 ft 166 kts 227°
2026-04-24 23:34 -23.48764 -47.28971 8009 ft 166 kts 227°
2026-04-24 23:34 -23.49518 -47.29917 8014 ft 165 kts 245°
2026-04-24 23:35 -23.49597 -47.31134 8012 ft 165 kts 290°
2026-04-24 23:35 -23.48843 -47.32049 8010 ft 168 kts 334°
2026-04-24 23:35 -23.47701 -47.32107 8014 ft 170 kts 19°
2026-04-24 23:35 -23.46832 -47.31260 8019 ft 172 kts 64°
2026-04-24 23:36 -23.46744 -47.29984 8016 ft 173 kts 109°
2026-04-24 23:36 -23.47476 -47.29006 8010 ft 172 kts 153°
2026-04-24 23:36 -23.48621 -47.28855 8009 ft 169 kts 198°
2026-04-24 23:36 -23.49554 -47.29583 8010 ft 167 kts 229°
2026-04-24 23:37 -23.50395 -47.30454 8002 ft 167 kts 220°
2026-04-24 23:37 -23.51410 -47.31072 7992 ft 169 kts 201°
2026-04-24 23:37 -23.53676 -47.31712 7993 ft 168 kts 195°
2026-04-24 23:38 -23.54811 -47.32014 7995 ft 168 kts 195°
2026-04-24 23:38 -23.55942 -47.32321 7994 ft 168 kts 196°
2026-04-24 23:38 -23.57074 -47.32629 7995 ft 168 kts 196°
2026-04-24 23:38 -23.58208 -47.32937 7994 ft 168 kts 196°
2026-04-24 23:39 -23.59341 -47.33245 7994 ft 168 kts 196°
2026-04-24 23:39 -23.60477 -47.33554 7994 ft 168 kts 196°
2026-04-24 23:39 -23.61611 -47.33862 7995 ft 168 kts 196°
2026-04-24 23:39 -23.62746 -47.34170 7995 ft 168 kts 196°
2026-04-24 23:40 -23.63879 -47.34479 7995 ft 168 kts 196°
2026-04-24 23:40 -23.65014 -47.34788 7996 ft 168 kts 196°
2026-04-24 23:40 -23.66149 -47.35097 7996 ft 168 kts 196°
2026-04-24 23:40 -23.67269 -47.35401 7996 ft 168 kts 196°
2026-04-24 23:41 -23.68407 -47.35711 7996 ft 168 kts 196°
2026-04-24 23:41 -23.69543 -47.36021 7995 ft 168 kts 196°
2026-04-24 23:41 -23.70680 -47.36330 7996 ft 168 kts 196°
2026-04-24 23:41 -23.71817 -47.36639 7996 ft 168 kts 196°
2026-04-24 23:42 -23.72953 -47.36948 7996 ft 168 kts 196°
2026-04-24 23:42 -23.74087 -47.37257 7996 ft 168 kts 196°
2026-04-24 23:42 -23.74696 -47.37423 7996 ft 168 kts 196°